Location: Brusselsch Zeekanaal
(50.8667°N, 4.3667°E)
Time: 08:44:40
(UTC+00:00)

NOSS 0 Rocket - Pass Details

Date: 08 November 2025
Orbit: 934 x 953 km, 70.0° (Epoch: 11 December)

Event Time Altitude Azimuth Distance (km) Brightness Sun altitude
Rises 04:35:45 0° 197° (SSW) 3,577 6.8 -20.8°
Reaches altitude 10° 04:38:16 10° 194° (SSW) 2,637 6.1 -20.4°
Maximum altitude 04:44:17 62° 115° (ESE) 1,050 4.4 -19.4°
Drops below altitude 10° 04:50:21 10° 36° (NE) 2,660 6.7 -18.5°
Sets 04:52:54 0° 34° (NNE) 3,610 7.4 -18.1°
